902  
ASUS45 KCYS 220010  
RWRWY  
 
WYOMING REGIONAL WEATHER ROUNDUP  
NATIONAL WEATHER SERVICE CHEYENNE WY  
600 PM MDT SAT APR 21 2018  
 
NOTE: "FAIR" INDICATES FEW OR NO CLOUDS BELOW 12,000 FEET  
WITH NO SIGNIFICANT WEATHER AND/OR S TO VISIBILITY
.  
 
WYZ001-220100-  
YELLOWSTONE NATIONAL PARK  
 
CITY SKY/WX TMP DP RH WIND PRES REMARKS
 
LK YELLOWSTONE N/A 51 22 31 W13 30.20S  
6HR MIN TEMP: 40; 6HR MAX TEMP: 53;  
 
W YELLOWSTONE NOT AVBL  
 

 
WYZ002>013-054>058-071-098>099-220100-  
NORTHERN WYOMING  
 
CITY SKY/WX TMP DP RH WIND PRES REMARKS
 
JACKSON FAIR 60 24 25 W8 30.14F  
CODY FAIR 69 26 20 W13G18 30.01S  
GREYBULL FAIR 71 23 16 CALM 29.95F  
WORLAND FAIR 70 23 17 CALM 29.98S  
6HR MIN TEMP: 59; 6HR MAX TEMP: 70;  
 
SHERIDAN FAIR 68 35 29 S5 29.97F  
6HR MIN TEMP: 61; 6HR MAX TEMP: 70;  
 
BUFFALO FAIR 64 33 31 VRB7 30.03F  
6HR MIN TEMP: 58; 6HR MAX TEMP: 65;  
 
GILLETTE FAIR 58 37 45 S16 30.05S  
6HR MIN TEMP: 48; 6HR MAX TEMP: 59;  
 
HULETT FAIR 57 34 41 SW12 30.08S  
NEWCASTLE FAIR 54 32 43 SE10G21 30.11S  
 

 
WYZ014>020-022>026-101>103-220100-  
CENTRAL WYOMING  
 
CITY SKY/WX TMP DP RH WIND PRES REMARKS
 
BIG PINEY FAIR 60 22 23 NW17G30 30.16R  
6HR MIN TEMP: 54; 6HR MAX TEMP: 63;  
 
PINEDALE FAIR 59 23 25 NW16G28 30.15R  
DUBOIS FAIR 55 21 26 NW15 30.13S  
LANDER FAIR 66 26 22 SE8 30.01F  
6HR MIN TEMP: 56; 6HR MAX TEMP: 67;  
 
RIVERTON FAIR 65 24 21 NE7 30.03S  
6HR MIN TEMP: 55; 6HR MAX TEMP: 66;  
 
CASPER FAIR 60 37 42 SE7 30.05S  
6HR MIN TEMP: 50; 6HR MAX TEMP: 63;  
 
DOUGLAS FAIR 54 37 52 SE13 30.09S  
6HR MIN TEMP: 44; 6HR MAX TEMP: 56;  
 

 
WYZ021-027>030-104>119-220100-  
SOUTHERN WYOMING  
 
CITY SKY/WX TMP DP RH WIND PRES REMARKS
 
EVANSTON FAIR 59 20 22 W12G28 30.20S  
6HR MIN TEMP: 56; 6HR MAX TEMP: 62;  
 
KEMMERER FAIR 59 21 23 W18G28 30.19S  
FORT BRIDGER FAIR 63 13 14 NW18G25 30.20S  
ROCK SPRINGS FAIR 65 14 14 NW12G21 30.09S  
6HR MIN TEMP: 52; 6HR MAX TEMP: 66;  
 
DIXON FAIR 57 35 43 SW13 30.15F  
RAWLINS N/A N/A N/A N/A MISG 30.10S  
SARATOGA FAIR 55 27 33 NW9 30.12S  
LARAMIE FAIR 40 35 83 SW7 30.12F  
6HR MIN TEMP: 30; 6HR MAX TEMP: 40; 6HR PCP: TRACE;  
 
CHEYENNE CLOUDY 39 36 89 S12 30.15S WCI 32  
6HR MIN TEMP: 36; 6HR MAX TEMP: 43; 6HR PCP: TRACE;  
 
TORRINGTON FAIR 45 38 76 SE12 30.15S  
6HR MIN TEMP: 37; 6HR MAX TEMP: 47;  
 
PINE BLUFFS MOCLDY 43 32 65 MISG 30.16S  
 

 
 
 
CLICK HERE TO GO TO PREVIOUS BULLETINS.

The Nexlab WY Page Main Text Page